Location: Aldenham
(51.6667°N, 0.3500°W)
Time: 21:38:59
(UTC+00:00)

Vanguard 2 Rocket - Pass Details

Date: 24 February 2026
Orbit: 553 x 3286 km, 32.9° (Epoch: 8 March)

Event Time Altitude Azimuth Distance (km) Brightness Sun altitude
Rises 15:54:04 0° 270° (W) 7,044 12.4 13.0°
Reaches altitude 10° 16:00:39 10° 258° (WSW) 5,695 12.6 12.2°
Maximum altitude 16:11:24 22° 217° (SW) 3,986 11.6 10.8°
Drops below altitude 10° 16:19:22 10° 173° (S) 4,074 10.6 9.7°
Sets 16:23:03 0° 158° (SSE) 4,642 10.6 9.2°
